GFSCGP_700_rhum_132.txt.gz
RH
7 6 21 46 41 32 33 36 44 57 50 50 53 55 54 52 52 59 65 79 86 82 77 80 72 64 48 49 64 64 67 68 60 57 64 80 88 70 81 53 46 34 32 46
14 9 6 39 24 29 25 26 57 60 55 52 56 46 62 59 56 59 58 71 83 84 83 84 76 70 60 49 49 54 62 71 66 64 61 80 57 61 72 56 56 45 42 31
14 13 13 15 19 15 13 26 49 42 54 56 55 62 61 55 68 68 66 69 79 83 83 82 74 71 68 61 54 49 52 64 64 69 61 74 63 59 72 78 68 47 42 40
17 12 12 12 13 13 15 22 30 42 59 72 52 44 32 41 46 57 68 66 67 73 82 82 79 73 70 65 60 55 46 48 48 53 59 71 57 68 62 52 45 46 40 41
21 20 17 15 14 22 21 21 22 48 49 30 35 46 34 44 44 43 46 64 68 69 71 70 73 74 76 74 63 61 40 45 48 46 47 61 63 60 66 40 38 44 39 39
22 20 18 18 17 18 21 18 18 21 21 26 22 34 29 40 33 38 40 50 56 61 69 77 76 83 74 82 73 64 50 36 40 49 52 66 53 72 64 36 31 39 42 50
19 18 19 19 18 18 19 17 18 22 28 34 23 28 27 39 37 38 41 47 55 52 61 66 73 80 75 72 75 61 64 59 35 36 47 48 47 64 52 58 51 46 42 42
20 20 18 19 17 17 16 16 18 27 45 24 18 42 54 54 47 39 51 56 62 56 59 65 72 75 79 67 81 74 61 69 54 33 38 52 36 37 61 75 66 74 60 51
22 23 20 18 16 17 18 18 17 16 17 26 42 57 52 56 46 43 44 48 54 54 60 66 68 78 73 73 70 81 76 63 60 43 36 44 45 37 47 55 58 62 53 44
22 19 17 16 16 16 17 18 20 32 34 39 62 52 48 54 50 48 50 54 51 59 66 68 70 78 79 79 66 79 82 75 75 67 46 39 46 44 47 55 71 55 46 40
21 21 21 17 17 18 20 21 21 23 31 48 55 48 50 48 43 46 45 42 52 57 63 58 65 71 73 83 79 82 86 81 79 74 64 30 42 50 51 54 59 62 56 37
22 22 23 22 22 22 20 22 21 25 27 34 37 40 47 52 50 49 50 50 48 55 77 69 59 61 72 74 80 83 85 83 83 87 81 66 34 41 55 51 59 66 54 47
23 22 21 22 21 20 19 18 24 29 29 33 40 45 50 46 45 46 56 57 47 66 65 59 61 71 78 79 88 78 92 87 88 86 87 80 68 38 37 51 55 65 53 51
24 25 25 23 23 20 18 20 17 17 28 30 32 38 44 44 44 52 58 55 53 53 52 45 42 65 83 92 98 98 87 90 99 96 87 86 88 68 35 37 48 62 57 56
23 24 20 24 25 21 25 23 20 19 17 21 23 36 36 34 32 30 46 53 52 50 55 47 52 68 68 65 66 70 95 95 98 94 92 90 93 78 43 35 38 45 55 54
24 20 15 18 24 26 29 30 24 24 28 29 36 34 32 30 30 35 41 57 48 45 51 49 49 51 48 43 61 73 75 81 99 85 86 86 89 67 48 39 37 42 52 71
29 30 26 30 35 35 31 28 30 34 34 34 34 33 33 33 35 36 40 49 42 43 59 58 49 44 46 48 58 72 80 89 91 96 90 81 87 73 64 50 52 50 44 51
28 32 30 28 29 41 35 31 30 34 37 37 37 33 30 33 34 40 42 41 42 48 51 49 39 47 52 58 56 80 85 82 83 87 91 79 75 87 76 66 58 61 59 58
26 26 23 23 25 28 28 34 41 39 34 32 30 35 40 47 54 53 50 47 42 47 48 48 50 62 57 51 50 65 64 61 63 80 92 90 92 82 87 76 63 48 49 50
27 27 26 26 31 42 28 29 37 40 40 41 51 57 56 59 60 56 56 51 49 54 54 58 57 51 59 74 84 85 78 74 84 82 94 88 90 89 97 88 75 70 58 62
33 31 27 25 26 28 32 37 45 53 52 53 50 53 52 52 51 53 61 54 50 60 53 50 54 56 60 70 74 84 95 82 92 98 94 86 83 90 99 99 95 91 83 80
35 31 33 36 32 46 54 57 57 60 55 50 50 47 53 58 66 53 51 55 63 63 54 52 56 61 62 70 81 81 78 77 96 100 99 98 99 99 90 86 95 98 98 92
37 35 34 38 42 50 56 52 53 57 58 62 59 56 60 64 72 66 63 66 62 71 62 55 55 60 65 67 89 76 91 94 83 100 100 100 100 100 99 100 100 100 100 99
41 41 38 34 43 50 48 52 48 49 54 50 50 69 61 87 96 84 75 69 69 70 63 57 52 54 61 64 80 74 85 89 94 93 97 96 90 89 87 93 97 81 85 87
46 42 39 47 54 55 53 54 54 54 51 51 61 63 75 78 90 69 67 63 60 59 55 51 48 48 57 63 66 67 81 83 84 79 81 88 81 76 77 82 81 85 78 82
46 45 42 44 47 55 56 53 42 47 56 46 57 68 68 76 76 72 63 57 55 56 59 56 50 49 53 86 84 69 88 82 89 86 79 74 94 100 92 91 91 84 87 89

GFSCGP_700_rhum_135.txt.gz
RH
14 22 32 47 48 46 39 36 28 42 54 46 39 52 64 71 71 68 71 71 82 71 78 75 72 77 73 70 55 56 54 58 58 58 59 65 58 59 56 70 46 52 44 36
11 7 11 38 48 46 36 26 19 36 56 53 55 44 55 66 58 66 66 65 71 76 81 64 66 67 71 61 55 49 49 54 62 65 64 72 78 65 72 53 46 40 38 37
13 11 8 33 47 40 24 15 13 43 56 57 57 51 42 44 62 60 64 66 69 80 77 69 59 63 68 66 59 53 50 50 62 62 54 62 56 54 63 46 43 47 36 36
16 14 14 14 22 21 13 21 30 55 56 52 53 60 32 31 36 61 65 65 65 74 82 79 73 66 65 69 66 67 51 45 47 52 56 52 68 64 64 77 58 65 52 42
23 19 20 17 15 15 21 20 28 51 55 51 42 71 34 29 33 39 48 66 69 68 70 77 79 72 68 73 67 78 67 44 44 46 46 59 55 65 72 62 73 68 49 42
21 21 20 18 15 21 22 18 34 52 61 37 28 55 26 30 35 36 43 52 61 69 70 82 80 85 83 75 71 81 78 48 41 44 48 46 59 59 60 61 43 38 42 34
23 21 19 19 19 18 21 19 21 33 33 32 24 32 25 27 29 37 40 42 49 65 71 75 78 83 80 76 70 76 79 67 51 36 44 47 54 60 72 63 42 43 47 45
21 19 18 20 19 18 19 19 19 26 35 27 23 30 30 39 43 44 41 52 55 61 63 70 72 71 70 70 75 71 74 69 74 66 35 41 46 49 62 64 41 42 46 52
21 23 21 20 19 18 18 18 18 18 21 27 31 56 53 56 48 45 49 52 60 65 56 64 69 72 72 69 79 74 76 79 66 62 50 36 41 42 36 52 75 68 77 66
20 23 20 21 19 18 18 18 21 20 34 39 54 58 50 55 46 42 46 55 58 53 60 61 68 71 70 74 80 78 80 83 86 76 70 58 36 41 43 40 55 61 58 60
20 22 19 19 19 17 17 17 18 21 32 48 64 53 50 49 46 43 42 40 38 53 64 64 68 78 78 78 82 87 79 84 91 89 84 71 34 36 43 46 45 56 56 55
21 22 21 20 19 22 19 20 20 20 22 35 35 40 44 50 48 46 42 38 38 39 51 70 74 65 66 67 76 80 84 89 78 97 95 86 78 46 33 46 47 50 54 58
23 23 23 23 21 19 20 20 20 24 28 30 42 41 45 44 45 44 42 42 42 41 41 62 64 50 53 54 65 82 91 96 72 90 99 97 91 76 61 34 42 54 52 60
23 22 22 23 22 22 18 20 22 20 22 32 37 34 41 45 40 41 42 50 50 51 50 45 48 49 40 44 62 81 91 84 97 99 93 98 98 91 83 78 41 41 57 56
24 23 23 24 22 24 21 20 23 22 22 20 22 32 40 42 39 29 24 26 34 60 51 51 55 47 47 50 57 59 53 63 65 64 72 76 100 99 95 85 75 36 45 58
21 21 21 21 24 22 24 26 27 28 27 27 27 35 37 33 31 29 29 40 44 52 49 44 48 54 46 48 46 45 48 66 71 65 68 81 90 99 96 87 67 38 35 49
24 25 18 26 31 34 32 31 28 32 35 35 36 34 34 33 31 30 31 34 35 53 47 39 47 51 52 37 39 44 47 41 46 63 81 83 76 99 99 98 70 46 33 40
27 25 26 30 30 37 32 32 32 36 37 38 35 32 30 30 28 28 36 40 42 49 40 38 49 68 55 41 42 52 54 50 69 90 95 99 85 92 96 98 88 58 48 55
28 24 31 29 24 27 36 32 30 38 38 33 31 30 35 37 35 30 37 54 56 49 44 43 46 49 48 59 56 51 53 52 68 75 73 93 99 81 83 79 84 72 55 56
28 25 27 25 25 36 26 28 28 32 36 32 35 37 42 41 50 43 44 44 50 52 45 49 55 65 59 64 77 76 77 82 76 58 56 64 97 96 88 80 84 71 62 59
31 27 28 27 27 27 25 25 26 37 33 40 45 47 45 42 43 38 38 46 58 55 56 56 61 56 62 75 72 73 74 75 72 82 83 95 98 100 95 87 94 86 78 66
27 31 31 29 30 34 32 34 41 42 44 41 48 51 64 67 62 59 56 47 53 57 52 52 58 60 64 65 74 84 84 77 89 75 85 100 94 99 81 84 95 87 76 87
31 30 31 32 34 37 39 46 46 42 36 42 56 65 53 61 69 72 65 56 52 54 61 62 61 63 68 65 72 91 90 85 97 97 92 100 100 100 92 99 100 94 98 98
36 36 36 35 40 39 38 42 42 42 41 48 56 51 55 69 85 88 78 70 70 67 76 64 62 60 60 68 77 89 96 84 80 97 83 98 100 100 100 100 100 100 98 99
38 40 39 38 38 39 45 46 46 48 48 45 50 54 66 67 87 83 69 75 78 80 71 65 59 47 51 64 74 80 89 78 90 98 97 89 86 94 96 100 99 99 98 99
44 42 40 43 43 45 45 48 51 44 35 47 51 61 63 67 76 68 67 69 64 62 59 58 56 53 53 65 72 79 78 78 88 92 91 84 79 79 78 89 89 92 95 83

GFSCGP_700_rhum_138.txt.gz
RH
20 25 42 45 50 51 47 56 44 30 27 54 50 53 75 75 74 77 76 71 65 53 62 65 77 77 80 86 70 67 58 56 59 62 60 53 62 61 64 61 55 47 34 37
15 20 35 33 36 45 48 42 35 24 34 55 53 44 61 72 63 70 74 72 69 76 67 54 63 72 73 77 72 60 55 56 59 62 62 61 68 62 62 64 61 46 48 35
11 8 12 20 25 32 49 44 32 16 15 59 54 44 44 54 57 60 60 68 72 72 74 71 56 62 68 64 58 72 60 52 56 62 62 58 70 63 60 66 48 39 37 32
14 11 13 11 11 22 46 31 19 26 29 60 58 53 31 37 40 46 59 62 63 65 68 69 70 63 66 72 67 68 72 57 53 64 59 64 60 61 60 61 47 44 34 33
17 18 21 20 16 34 42 19 20 34 49 62 56 69 30 33 27 33 42 58 62 64 67 63 68 67 69 74 72 72 68 50 46 46 51 51 59 64 58 61 74 45 55 44
23 23 22 18 18 18 17 20 27 44 58 62 47 43 24 28 36 35 40 49 53 61 62 64 70 75 81 78 81 75 71 56 42 42 46 44 55 61 54 59 68 53 64 47
24 22 21 20 19 18 20 25 57 66 77 75 26 31 21 27 32 36 38 40 46 57 55 64 68 70 71 80 79 75 72 62 49 37 40 43 48 54 63 58 60 42 34 46
23 21 20 19 20 21 20 20 21 29 36 29 23 30 27 34 45 48 47 42 47 50 60 65 68 70 74 72 78 79 62 74 77 79 47 38 46 50 61 65 70 41 38 47
22 20 18 18 19 20 19 19 19 20 26 24 30 36 34 46 53 48 43 49 46 52 60 64 62 71 72 74 76 80 78 76 78 84 80 49 40 45 47 52 62 56 38 37
21 24 22 20 20 20 18 18 20 19 30 29 48 49 38 52 48 43 41 43 48 46 58 59 60 64 67 75 75 79 75 83 85 91 92 80 47 42 49 45 43 71 72 72
22 22 22 21 21 20 19 19 20 23 34 51 66 54 42 46 44 43 39 42 39 38 42 58 60 60 67 64 75 83 70 78 84 82 91 88 77 64 45 51 43 46 56 63
21 21 21 20 20 20 18 18 18 20 27 31 37 32 47 45 42 39 42 38 38 39 38 50 63 63 57 54 62 74 67 59 86 80 69 88 87 83 48 48 54 49 48 59
21 22 23 24 20 21 22 22 22 22 21 22 38 31 32 43 43 45 43 37 24 26 38 40 56 69 56 43 51 54 66 66 72 89 91 84 78 86 81 49 48 58 52 52
22 22 22 22 22 19 20 21 20 22 29 31 30 28 30 37 46 42 36 26 21 19 29 45 46 46 51 47 48 58 75 76 85 83 81 79 72 82 89 80 65 48 56 57
24 23 23 22 24 23 21 20 20 21 21 20 19 29 28 32 48 38 35 23 25 24 26 50 50 47 55 46 50 48 60 83 70 92 88 66 63 71 79 80 83 84 59 45
24 24 23 22 22 22 23 23 24 22 22 23 21 20 22 44 46 39 29 28 29 30 38 56 50 47 45 48 47 53 54 52 51 49 71 72 74 87 68 68 89 85 86 64
25 24 22 20 20 23 31 29 30 28 29 28 29 31 35 41 34 31 30 27 29 34 44 54 59 46 41 54 52 48 50 51 50 50 49 53 60 79 84 85 71 74 78 83
22 23 23 32 34 38 27 30 31 32 33 36 36 35 33 32 31 30 28 28 40 44 53 53 58 43 38 50 61 62 47 48 53 55 56 53 59 73 80 85 90 84 90 84
23 26 26 31 31 30 33 33 32 34 37 40 37 32 30 30 33 34 36 36 40 48 53 56 48 42 42 47 54 50 48 50 43 46 50 54 68 77 93 88 89 87 92 93
28 27 24 30 26 33 24 25 27 27 31 24 27 32 41 46 40 41 41 38 40 36 48 56 49 48 47 54 62 55 55 70 68 64 64 68 68 80 79 83 88 83 78 93
31 27 25 28 26 27 27 25 25 38 24 34 40 41 49 56 50 45 43 42 33 35 55 57 54 57 61 65 58 63 67 66 66 60 62 60 71 62 55 79 87 94 99 96
30 28 29 28 28 28 28 26 29 32 38 42 38 48 47 47 50 58 64 69 57 49 55 62 60 59 58 58 65 66 63 66 65 70 74 74 64 66 78 69 95 100 90 99
30 27 26 28 28 30 31 32 32 42 42 42 40 46 56 49 50 58 66 72 68 61 50 62 60 58 58 60 67 69 77 77 74 68 74 81 99 100 93 91 91 87 94 99
29 27 28 29 31 30 33 32 36 39 45 47 50 52 43 48 59 68 78 76 68 66 51 51 57 64 62 62 68 81 86 70 78 97 94 81 87 100 100 100 100 97 97 100
29 31 31 32 34 35 34 37 46 46 46 48 39 44 50 54 61 72 72 67 65 73 70 71 67 61 56 52 66 81 86 78 86 94 99 100 96 99 100 100 100 99 98 100
40 37 37 36 35 37 38 44 43 45 51 48 42 46 54 59 62 66 68 66 66 70 68 62 59 55 55 58 76 78 75 76 93 99 84 90 96 99 95 100 100 100 100 100

GFSCGP_700_rhum_141.txt.gz
RH
22 26 29 37 40 51 50 53 58 40 28 34 56 58 63 63 62 64 68 65 60 62 71 78 84 85 86 83 67 59 55 61 64 59 61 51 55 53 67 53 31 29 34 38
17 20 27 33 38 37 46 46 42 36 23 27 59 55 55 52 51 58 69 69 64 61 62 70 76 79 78 84 76 65 56 54 58 64 68 62 60 71 70 64 50 44 39 32
17 15 19 29 34 32 39 47 46 41 23 18 55 54 44 43 48 58 59 56 62 65 64 61 65 69 76 75 67 60 58 56 58 63 62 57 58 63 57 56 59 58 46 44
17 11 11 16 23 28 23 45 47 44 23 48 56 43 36 35 41 43 53 59 58 57 62 67 71 68 66 69 70 73 67 59 59 60 59 60 60 75 74 66 67 46 39 40
24 14 12 17 14 21 29 35 43 38 38 61 57 58 42 29 37 33 35 44 53 53 64 66 64 62 73 75 66 67 68 58 55 56 63 64 66 63 66 57 60 42 43 32
24 24 23 21 16 10 13 32 30 24 53 50 55 57 29 27 35 40 35 36 44 45 56 66 70 68 73 76 79 73 67 58 49 50 52 49 55 62 67 68 57 62 52 56
23 24 22 24 22 20 22 32 45 45 51 40 38 52 31 22 27 34 44 36 39 42 48 60 65 64 73 72 75 67 70 66 58 46 49 52 52 64 65 61 67 65 59 58
23 20 21 22 22 19 19 30 26 33 40 34 40 28 27 31 39 43 44 41 42 44 49 54 64 71 70 75 76 76 74 64 66 72 58 50 55 52 59 68 64 65 54 41
23 22 20 20 20 21 21 33 21 22 25 23 28 24 28 33 45 49 42 39 46 38 49 49 60 64 72 74 77 75 85 74 76 85 90 89 59 53 54 68 67 70 66 47
22 22 17 20 19 19 20 19 20 20 26 24 28 47 34 39 49 45 42 40 41 40 44 51 51 60 65 71 78 81 79 76 68 81 86 94 98 67 51 58 60 64 70 52
22 25 23 20 21 20 19 19 20 21 24 19 21 26 24 29 47 43 42 42 40 37 36 49 58 60 59 62 64 72 75 74 64 70 80 87 96 99 81 50 58 56 65 81
21 23 24 22 21 20 20 20 20 20 33 33 34 24 30 36 46 37 35 38 36 33 36 38 57 64 57 53 60 65 75 73 66 70 73 69 78 92 98 69 48 58 54 67
21 24 27 22 22 21 20 19 18 18 19 26 22 22 23 36 42 39 34 39 32 23 25 35 41 59 66 58 46 53 69 74 69 73 72 58 74 82 84 77 63 49 52 47
22 22 24 21 21 20 20 21 21 22 26 26 24 21 21 27 33 38 41 34 20 19 19 18 22 41 63 51 49 46 55 59 72 85 76 74 67 78 74 81 83 51 48 51
24 22 22 22 22 22 20 21 21 21 23 28 27 26 26 28 31 42 44 34 24 20 22 21 22 47 48 46 49 45 47 48 66 74 75 84 83 72 82 79 79 78 58 43
26 23 23 23 23 23 22 21 21 20 20 20 20 20 26 29 35 47 46 39 27 26 27 27 28 49 54 45 47 50 56 55 58 82 79 86 88 70 79 70 66 86 85 76
26 24 24 26 23 23 26 20 22 24 24 23 22 21 18 18 28 48 46 35 30 30 31 34 40 60 60 56 41 46 61 58 52 55 54 55 60 73 69 66 69 71 76 90
24 24 24 29 25 28 23 19 25 28 28 28 28 30 31 35 44 40 33 30 29 29 32 36 45 55 56 59 42 41 56 60 65 58 48 45 46 47 48 54 63 75 73 82
27 23 23 35 31 28 23 20 23 31 34 34 37 35 35 34 33 32 32 31 29 27 31 40 44 49 48 53 44 43 44 56 52 48 49 51 43 39 36 36 38 54 68 67
28 24 23 28 32 32 26 24 30 32 33 33 36 36 32 31 40 39 38 35 38 36 36 36 40 56 53 49 46 46 51 60 58 59 60 61 62 60 54 52 42 48 64 63
31 27 26 28 29 26 23 23 26 34 26 23 23 33 39 37 39 37 40 40 39 38 36 30 35 45 53 50 58 64 58 60 60 58 53 54 60 58 48 53 54 78 87 94
29 29 29 27 27 30 25 26 29 25 31 33 41 38 34 38 40 38 42 43 47 55 57 49 37 58 63 58 58 56 62 63 60 54 47 53 56 61 50 50 56 73 72 86
34 28 29 26 25 24 25 27 29 32 33 40 38 37 42 44 32 38 47 59 67 66 63 62 54 65 62 58 58 65 69 68 66 56 57 58 70 65 77 73 71 73 65 96
37 31 30 27 26 25 26 28 32 32 37 42 42 42 40 26 41 56 61 60 66 71 62 51 47 60 62 60 65 68 76 77 68 73 71 86 72 75 98 100 96 98 99 99
42 35 31 27 26 27 29 32 33 35 41 43 45 45 39 45 53 60 60 60 63 68 64 58 50 52 59 65 64 68 86 78 73 88 84 99 92 98 98 99 100 100 100 100
54 37 32 31 28 27 31 33 33 40 45 48 46 32 37 52 56 59 62 65 69 69 70 68 65 62 58 52 58 85 79 69 70 83 96 80 98 99 97 100 100 99 100 100